sat.trackr.live / text

‹ back to catalog

STARLINK-32916

NORAD 62922 · 2025-027R

PAYLOAD ACTIVE UNKNOWN

§ Identity

Operator
Country
US
Launch date
2025-02-08
Launch site
AFETR
Launch vehicle
Mass (kg)
RCS (m²)

Purposes: comms

External: N2YO · Heavens-Above · Gunter

§ Orbital elements

Epoch: 2026-05-25T03:05:43.349280Z

Period
94.27 min
Inclination
43.0020°
Eccentricity
0.0001214
Mean motion
15.27585053 rev/d
Perigee alt
482.2 km
Apogee alt
483.9 km
Semi-major
6,861.2 km
B*
5.8650e-4
RAAN
57.0990°
Arg perigee
266.5888°
Mean anomaly
93.4825°
Rev number
7,323

§ Raw data

STARLINK-329161 62922U 25027R   26145.12897395  .00015914  00000+0  58650-3 0  99952 62922  43.0020  57.0990 0001214 266.5888  93.4825 15.27585053 73230

JSON: /api/v1/satellites/62922 · /tle

For live sub-satellite position, see the globe view (requires WebGL).

§ Visibility from observer

Set your observer location to see the next 7 days of passes ≥ 10°. The values pass through the URL so the page stays shareable.

No JS? Fill the form by hand. The geolocation button needs JavaScript.